ATLAS 5 CENTAUR DEB, 43960

Orbit data source: Space-Track

ATLAS 5 CENTAUR DEB, 43960 is space debris in HEO originally from a launch on Wed, 17 Sep 2014 UTC launched from the Air Force Eastern Test Range (AFETR). Debris objects in space refer to the collection of defunct objects orbiting the Earth. Examples of debris include non-operational satellites, rocket bodies, and fragments generated from explosions, collisions, or faulty payload assembly.

Loading next visibility...
Identifier
43960, 2014-055P
Orbit
HEO
Country
Flag of USUS
Related business
Flag of USUnited Launch Alliance/Lockheed Martin (US)
Manufacturer
Unknown
Mission
Spacecraft
Bus & Motor
Unknown
Mass
Unknown
Launch date (UTC)
Icon of a cake. It is the launch day of the satellite!2014-09-17 (11 years ago)
Launch vehicle
Unknown
Launch site
Air Force Eastern Test Range (AFETR)
Object type
Payload
Rocket body
Debris
Shape & HBR
Unknown
Radar Cross Section
Small (<0.1 m²)

Expand to show TLE details & history
Last TLE update: 1 week ago

TLE from 1 week ago
0 ATLAS 5 CENTAUR DEB
1 43960U 14055P   25251.97676372  .00000007  00000-0  00000-0 0  9996
2 43960  19.5403 165.8513 5115551 124.0897 295.2297  1.81612472 46535
Epoch: 2025-09-08T23:26Z
TLE epoch observation values (Epoch: 2025-09-08T23:26:32.385Z)
Latitude
0.00002°
Longitude
-174.11327°
Altitude
23,046.299 km
Speed
3.612 km/s
True Right ascension
11h 03m 10s
True Declination
0° 00' 00"
Sunlit
Object was in daylight at epoch
Visualization orbit readout
Latitude
Unknown
Longitude
Unknown
Altitude
Unknown
Speed
Unknown
Apparent Right ascension
Unknown
Apparent Declination
Unknown
Sunlit
N/A
Visualization observer readout
Local Sidereal Time
12:45:27
Azimuth
Unknown
Elevation
Unknown
Doppler factor
Unknown
Orbital elements
Apogee altitude
36,518.851 km
Perigee altitude
7,483.624 km
Semi-major axis
28,379.375 km
Eccentricity
0.51156
Inclination
19.5403°
RAAN
165.8513°
Arg. of periapsis
124.0897°
True anomaly
235.84837°
Mean anomaly
295.2297°
Eccentric anomaly
265.99145°
Mean motion
0.45398 °/min
Orbital period
792.98 mins
BSTAR
0
Loading maneuver chart data...
Computing Atmospheric mass density...

Documentation

Showing up to 5 results
|